Weather in Proshkovo

Belarus     55°14′01″N   28°03′40″E
temp.,
°C
wind,
m/s
gust,
m/s
humid.,
%
clouds,
%
prec.,
mm/h
press.,
hPa
HPBL,
m
7 may, fri
fri700:00+2ssw411934 0.1 1007230
03:00+3ssw51288100 0.1 1006245
06:00+2ssw410925 0.3 1006254
09:00+7sw5877100 0.3 1007608
12:00+9sw5765100 0.3 10071258
15:00+8ssw6684100 1.2 1006944
18:00+6ese1294100 1.2 1005156
21:00+6ssw5895100 5.4 1004956
8 may, sat
sat800:00+4wnw3697100 0.6 1005655
03:00+2wnw349850 0.6 100690
06:00+1w489755 0.0 1007203
09:00+5wnw688315 0.0 1008745
12:00+5nw6873100 0.1 10101118
15:00+8nw5954100 0.1 10111881
18:00+8nw71057100 0.2 10121582
21:00+4wnw511773 0.3 1015254
9 may, sun
sun900:00+1wnw49900 0.0 1016156
03:000wnw35910 0.0 101976
06:000w34904 0.0 102068
09:00+6w3472100 0.0 1022464
12:00+10wsw445855 0.0 10231377
15:00+12sw45486 0.0 10221850
18:00+12sw46536 0.0 10222034
21:00+7ssw347466 0.0 102452
10 may, mon
mon1000:00+6s4107499 0.0 1024180
03:00+7s5126647 0.0 1025294
06:00+6s513728 0.0 1025287
09:00+11ssw6106627 0.0 1026428
12:00+16ssw785595 0.0 10261046
15:00+17ssw68515 0.0 10261332
18:00+17s57595 0.0 10251270
21:00+11sse477492 0.0 1026106
11 may, tue
tue1100:00+9sse51281100 0.0 1027220
03:00+9sse51378100 0.0 1027254
06:00+8sse5138266 0.0 1027296
09:00+13sse611648 0.0 1027539
12:00+17sse68495 0.0 10271077
15:00+19sse68448 0.0 10261257
18:00+18se58555 0.0 1024912
21:00+12se410755 0.0 1024196